STARLINK-5988 (56320 NORAD) Tracking and Keplerian Element Data

This shows tracking and keplerian element data for the satellite.

Feedback or suggestion? Click here.




ElementValue
Catalog56320
NameSTARLINK-5988
Epoch Orbit183
Epoch Day127.16667824
Epoch Year2023
RAAN126.6521
Inclination97.6624
Eccentricity0.0001505
Argument of Perigee97.2211
Mean Anonmoly87.3018
Mean Motion15.67678086
Decay Rate-0.00855925
L11 56320U 23058D 23127.16667824 -.00855925 00000+0 -86998-2 0 9996
L22 56320 97.6624 126.6521 0001505 97.2211 87.3018 15.67678086 1831



Live tracking and technical data element details for STARLINK-5988 (NORAD 56320). STARLINK-5988 can be tracked NOW for your location showing map with azimuth and elevation plus other details from your city location.







IsCatalogInMostPopularTable: catalog: 56320, numindb: 6
Update: records affected: 1



GetName: 56320 STARLINK-5988

Hit Count: updated at: Wed, 07 Jun 2023 08:53:13 GMT